Regional Weather Roundup
Issued by NWS

Home | Current Version | Previous Version | Graphics & Text | Print | Product List | Glossary On
Versions: 1 2 3 4 5 6 7 8 9 10 11 12 13 14 15 16 17 18 19 20 21 22 23 24 25 26 27 28 29 30 31 32 33 34 35 36 37 38 39 40 41 42 43 44 45 46 47 48 49 50
000
ASUS43 KMKX 201521
RWRWI

WISCONSIN REGIONAL WEATHER ROUNDUP
NATIONAL WEATHER SERVICE MILWAUKEE/SULLIVAN WI
1000 AM CDT MON OCT 20 2014

NOTE: "FAIR" INDICATES FEW OR NO CLOUDS BELOW 12,000 FEET WITH NO
SIGNIFICANT WEATHER AND/OR OBSTRUCTIONS TO VISIBILITY.

WIZ001-002-006>008-014>016-023>028-201600-
NORTHWEST WISCONSIN

CITY           SKY/WX    TMP DP  RH WIND       PRES   REMARKS
SUPERIOR ARPT  CLOUDY    48  43  83 NW7       29.97R
ASHLAND        CLOUDY    50  43  77 NW6       29.95R
HAYWARD        CLOUDY    47  42  83 MISG      29.95R
SIREN          SUNNY     49  42  77 N7        29.98R
CUMBERLAND     CLOUDY    46  41  81 N7        29.96S
RICE LAKE      PTSUNNY   49  42  76 NW7       29.98R
CHETEK         PTSUNNY   50  44  79 NW6       29.96R
LADYSMITH      SUNNY     50  43  77 NW9       29.95R
EAU CLAIRE     SUNNY     53  43  68 NW8       29.95R
MENOMONIE      SUNNY     53  43  67 NW7       29.97R
NEW RICHMOND   SUNNY     52  42  70 NW9       29.98S
OSCEOLA        SUNNY     50  46  84 N5        30.01S
$$

WIZ003>005-009-010-017-018-201600-
NORTH CENTRAL WISCONSIN

CITY           SKY/WX    TMP DP  RH WIND       PRES   REMARKS
MANITOWISH WTR DRIZZLE   45  44  98 N6        29.89S
ARBOR VITAE    DRIZZLE   46  44  93 N8        29.89R
WOODRUFF       DRIZZLE   46  44  93 N8        29.89R
RHINELANDER    CLOUDY    44  43  96 NW3       29.89R
EAGLE RIVER    DRIZZLE   44  44  98 N7        29.88R
LAND O LAKES   LGT RAIN  45  43  95 N6        29.89R
PHILLIPS       CLOUDY    46  42  87 NW3       29.91R
TOMAHAWK       CLOUDY    46  43  87 CALM      29.90R
MEDFORD        CLOUDY    46  42  87 NW8       29.91R
MERRILL        CLOUDY    47  43  87 NW6       29.89R
$$

WIZ029-030-035-036-043>047-201600-
CENTRAL WISCONSIN

CITY           SKY/WX    TMP DP  RH WIND       PRES   REMARKS
WAUSAU         CLOUDY    47  42  83 NW9       29.88R
MOSINEE        CLOUDY    46  45  93 NW9       29.91R
MARSHFIELD     MOSUNNY   51  43  74 NW14      29.91R
STEVENS POINT  CLOUDY    47  41  77 NW6       29.90R
WAUPACA        CLOUDY    53  45  75 NW7       29.88S
WAUTOMA        CLOUDY    53  43  69 NW10G22   29.89R
WISC RAPIDS    CLOUDY    50  43  77 NW9       29.92R
CAMP DOUGLAS   MOSUNNY   55  46  71 NW10      29.92R
$$

WIZ011>013-019>022-031-037>040-048>050-201600-
NORTHEAST WISCONSIN

CITY           SKY/WX    TMP DP  RH WIND       PRES   REMARKS
ANTIGO         CLOUDY    44  44  97 N5        29.88R FOG
SHAWANO        CLOUDY    50  46  86 W3        29.86S
OCONTO         CLOUDY    49  45  85 NW7       29.84S
STURGEON BAY   CLOUDY    50  43  76 N9        29.85S
GREEN BAY      CLOUDY    51  44  77 NW10      29.86R
MANITOWOC      CLOUDY    51  46  83 N8        29.84R
APPLETON       CLOUDY    48  45  87 NW10      29.87R
CLINTONVILLE   CLOUDY    50  43  76 NW7       29.86S
OSHKOSH        CLOUDY    51  45  79 NW13      29.86R
$$

WIZ032>034-041-042-053>061-201600-
SOUTHWEST WISCONSIN

CITY           SKY/WX    TMP DP  RH WIND       PRES   REMARKS
LA CROSSE      SUNNY     56  45  66 N5        29.95R
SPARTA         MOSUNNY   54  42  63 NW10      29.94S
VIROQUA        SUNNY     54  43  68 NW7       29.94S
BOSCOBEL       SUNNY     57  44  62 NW10G18   29.95R
PRAIRIE DU CHI SUNNY     54  43  66 NW7       29.96R
PLATTEVILLE    SUNNY     54  45  70 N7        29.94R
$$

WIZ056-057-062-063-064-067-068-201600-
SOUTH CENTRAL WISCONSIN

CITY           SKY/WX    TMP DP  RH WIND       PRES   REMARKS
REEDSBURG      SUNNY     54  43  66 NW12      29.91R
BARABOO/DELLS  SUNNY     53  41  63 NW9G17    29.91R
LONE ROCK      SUNNY     59  43  55 VRB6      29.92R
MINERAL POINT  SUNNY     55  43  62 NW10      29.92R
MADISON        SUNNY     54  43  66 N14       29.90R
MIDDLETON      SUNNY     56  42  61 N16       29.91R
WATERTOWN      SUNNY     52  45  79 NW9G17    29.87R
MONROE         SUNNY     54  45  71 NW10      29.89R
JANESVILLE     SUNNY     54  45  71 NW12      29.87R
$$

WIZ051-052-058>065-066-070>072-201600-
SOUTHEAST WISCONSIN

CITY           SKY/WX    TMP DP  RH WIND       PRES   REMARKS
MILWAUKEE      PTSUNNY   53  45  74 NW10      29.84R
WAUKESHA       MOSUNNY   48  45  87 NW12      29.86R
MILWAUKEE/TIMM NOT AVBL
RACINE         MOSUNNY   57  46  66 NW10      29.84R
BURLINGTON     SUNNY     52  44  75 NW15      29.85R
KENOSHA        SUNNY     54  46  74 NW7       29.84R
FOND DU LAC    CLOUDY    51  44  77 N13       29.87R
SHEBOYGAN      CLOUDY    50  44  80 NW7       29.85R
WEST BEND      CLOUDY    50  43  76 NW7       29.85R
JUNEAU         MOSUNNY   51  44  77 NW12G17   29.88R
$$

LSZ147-162-201600-
LAKE SUPERIOR

STATION/POSITION TIME  TEMP    WIND        PRES    WAVE
                       AIR SEA DIR/SP/G            HT/PER
                 (UTC) (F)     (DEG/KT/KT) (MB)    (FT/S)
W MID LAKE BUOY  1450   47 46  300/  8/  8 1013.0R   1
DEVILS ISLAND    1500   49     310/ 11/ 12 1014.0R
PORT WING        1400   49     340/  8/ 10 1014.2R
SAXON HARBOR     1400   50     320/  7/  9 1012.9R
$$

LMZ867-665-643>646-201600-
LAKE MICHIGAN

STATION/POSITION TIME  TEMP    WIND        PRES    WAVE
                       AIR SEA DIR/SP/G            HT/PER
                 (UTC) (F)     (DEG/KT/KT) (MB)    (FT/S)
CHAMBERS ISLAND  1400   50     320/ 12/ 15 1010.2R
N MID LAKE BUOY  1450   49 52  330/ 16/ 19 1009.8R   3/ 7
NORTHPORT PIER   1400   50     340/ 12/ 16 1010.2R
KEWAUNEE LAKESHO 1500   51     350/  6/ 10 1009.5R
SHEBOYGAN LAKESH 1500   51 50  330/ 10/ 12 1011.0R
PORT WASHINGTON  1400   53     300/ 13/ 15 1010.2
ATWATER BUOY     1500   53     340/  6/ 10 1011.8R
MILWAUKEE LAKESH 1500   53     350/  9/ 13   N/A
S MID LAKE BUOY  1450   53 55  300/ 10/ 12 1010.2R   3/ 5
KENOSHA   LAKESH 1500   53     310/  7/ 12 1010.5R
$$

TC  - TEMPERATURE IN CELSIUS
VSB - VISIBILITY IN STATUTE MILES
WCI - WIND CHILL INDEX
HX  - HEAT INDEX



USA.gov is the U.S. government's official web portal to all federal, state and local government web resources and services.